JAL920 ROAH-RJTT

Flight info

Callsign JAL920
Flight time 1h 56m
Altitude 35000
Route AMAMI Y574 SHIBK Y57 SUKBO Y571 BILLY Y21 AKSEL
Aircraft A359/H-SDE2E3GHIJ3J4J5LM1ORWXY/LB1D1

Departure

Time 2026-05-05 12:49
Airport Naha International Airport (ROAH)

Arrival

Time 2026-05-05 14:46
Airport Tokyo Haneda International Airport (RJTT)
Time Latitude Longitude Altitude Speed Heading
2026-05-05 12:09 26.20434 127.64865 28 ft 0 kts 49°
2026-05-05 12:36 26.20428 127.64857 28 ft 4 kts 54°
2026-05-05 12:36 26.20416 127.64831 28 ft 4 kts 81°
2026-05-05 12:36 26.20417 127.64804 26 ft 4 kts 120°
2026-05-05 12:37 26.20435 127.64782 26 ft 4 kts 146°
2026-05-05 12:37 26.20458 127.64767 28 ft 4 kts 158°
2026-05-05 12:37 26.20484 127.64758 27 ft 4 kts 165°
2026-05-05 12:37 26.20510 127.64751 28 ft 4 kts 171°
2026-05-05 12:38 26.20537 127.64747 28 ft 3 kts 177°
2026-05-05 12:38 26.20539 127.64747 28 ft 0 kts 178°
2026-05-05 12:40 26.20538 127.64747 28 ft 1 kts 177°
2026-05-05 12:40 26.20507 127.64751 28 ft 8 kts 173°
2026-05-05 12:41 26.20427 127.64761 28 ft 14 kts 175°
2026-05-05 12:41 26.20325 127.64766 28 ft 16 kts 178°
2026-05-05 12:41 26.20208 127.64770 28 ft 18 kts 178°
2026-05-05 12:41 26.20078 127.64776 28 ft 20 kts 176°
2026-05-05 12:42 26.19937 127.64785 28 ft 21 kts 177°
2026-05-05 12:42 26.19784 127.64792 28 ft 23 kts 178°
2026-05-05 12:42 26.19621 127.64799 28 ft 24 kts 178°
2026-05-05 12:42 26.19456 127.64806 28 ft 25 kts 177°
2026-05-05 12:43 26.19298 127.64814 29 ft 21 kts 177°
2026-05-05 12:43 26.19148 127.64822 29 ft 23 kts 177°
2026-05-05 12:43 26.18983 127.64830 29 ft 25 kts 178°
2026-05-05 12:43 26.18810 127.64838 29 ft 26 kts 177°
2026-05-05 12:44 26.18652 127.64846 29 ft 18 kts 177°
2026-05-05 12:44 26.18521 127.64853 29 ft 19 kts 177°
2026-05-05 12:44 26.18384 127.64860 29 ft 20 kts 177°
2026-05-05 12:44 26.18275 127.64860 29 ft 0 kts 187°
2026-05-05 12:47 26.18272 127.64860 29 ft 2 kts 187°
2026-05-05 12:47 26.18252 127.64834 29 ft 8 kts 248°
2026-05-05 12:47 26.18242 127.64745 28 ft 13 kts 266°
2026-05-05 12:47 26.18275 127.64668 27 ft 10 kts 331°
2026-05-05 12:48 26.18337 127.64653 28 ft 2 kts 356°
2026-05-05 12:48 26.18338 127.64653 28 ft 1 kts 356°
2026-05-05 12:48 26.18394 127.64650 28 ft 17 kts 357°
2026-05-05 12:49 26.18589 127.64639 28 ft 52 kts 357°
2026-05-05 12:49 26.19235 127.64609 30 ft 131 kts 357°
2026-05-05 12:49 26.20056 127.64558 145 ft 173 kts 358°
2026-05-05 12:49 26.21279 127.64494 903 ft 178 kts
2026-05-05 12:50 26.22557 127.64439 1645 ft 194 kts
2026-05-05 12:50 26.23995 127.64385 2105 ft 219 kts
2026-05-05 12:50 26.25543 127.63979 2694 ft 239 kts 337°
2026-05-05 12:50 26.27070 127.63093 3259 ft 257 kts 332°
2026-05-05 12:51 26.28632 127.62108 3997 ft 266 kts 330°
2026-05-05 12:51 26.30297 127.61068 4655 ft 276 kts 330°
2026-05-05 12:51 26.31978 127.60023 5374 ft 282 kts 329°
2026-05-05 12:51 26.33692 127.58966 6353 ft 281 kts 328°
2026-05-05 12:52 26.35410 127.57910 7264 ft 283 kts 328°
2026-05-05 12:52 26.37144 127.56845 8211 ft 286 kts 327°
2026-05-05 12:52 26.38899 127.55769 9176 ft 289 kts 326°
2026-05-05 12:52 26.40670 127.54683 10119 ft 292 kts 326°
2026-05-05 12:53 26.42497 127.53559 10682 ft 310 kts 325°
2026-05-05 12:53 26.44534 127.52493 11049 ft 337 kts 333°
2026-05-05 12:53 26.46801 127.51700 11593 ft 355 kts 342°
2026-05-05 12:53 26.49315 127.51520 12318 ft 372 kts
2026-05-05 12:54 26.54518 127.52690 13784 ft 390 kts
2026-05-05 12:54 26.56463 127.53218 14273 ft 394 kts
2026-05-05 12:54 26.59145 127.53957 14952 ft 399 kts
2026-05-05 12:55 26.61856 127.54709 15657 ft 404 kts
2026-05-05 12:55 26.64596 127.55470 16329 ft 408 kts
2026-05-05 12:55 26.67366 127.56241 17083 ft 410 kts
2026-05-05 12:55 26.70084 127.57000 17961 ft 408 kts 10°
2026-05-05 12:56 26.72847 127.57772 18679 ft 410 kts
2026-05-05 12:56 26.75636 127.58550 19266 ft 415 kts
2026-05-05 12:56 26.78452 127.59335 19831 ft 421 kts
2026-05-05 12:56 26.81310 127.60133 20427 ft 425 kts
2026-05-05 12:57 26.84190 127.60938 21022 ft 429 kts
2026-05-05 12:57 26.87097 127.61751 21613 ft 433 kts
2026-05-05 12:57 26.90035 127.62572 22181 ft 438 kts
2026-05-05 12:57 26.93006 127.63403 22726 ft 444 kts
2026-05-05 12:58 26.95987 127.64238 23307 ft 448 kts
2026-05-05 12:58 26.99032 127.65093 23855 ft 453 kts
2026-05-05 12:58 27.02076 127.65947 24371 ft 455 kts
2026-05-05 12:58 27.05162 127.66814 24941 ft 458 kts
2026-05-05 12:59 27.08236 127.67677 25508 ft 460 kts
2026-05-05 12:59 27.11346 127.68551 26062 ft 463 kts
2026-05-05 12:59 27.14500 127.69437 26443 ft 470 kts
2026-05-05 13:00 27.20451 127.71742 27408 ft 485 kts 25°
2026-05-05 13:00 27.23223 127.73947 27977 ft 491 kts 40°
2026-05-05 13:01 27.30535 127.82208 29431 ft 503 kts 44°
2026-05-05 13:01 27.32991 127.85046 29803 ft 509 kts 44°
2026-05-05 13:01 27.35471 127.87910 30259 ft 512 kts 43°
2026-05-05 13:01 27.37964 127.90789 30681 ft 515 kts 43°
2026-05-05 13:02 27.40468 127.93681 31095 ft 517 kts 43°
2026-05-05 13:02 27.42983 127.96587 31502 ft 519 kts 43°
2026-05-05 13:02 27.45478 127.99472 31916 ft 521 kts 43°
2026-05-05 13:02 27.48008 128.02398 32321 ft 524 kts 44°
2026-05-05 13:03 27.50564 128.05355 32551 ft 531 kts 44°
2026-05-05 13:03 27.53144 128.08344 32900 ft 533 kts 44°
2026-05-05 13:03 27.55740 128.11354 33295 ft 535 kts 44°
2026-05-05 13:03 27.58327 128.14380 33651 ft 538 kts 45°
2026-05-05 13:04 27.60682 128.17670 33985 ft 542 kts 53°
2026-05-05 13:04 27.62857 128.21148 34315 ft 543 kts 54°
2026-05-05 13:04 27.65003 128.24668 34635 ft 545 kts 55°
2026-05-05 13:04 27.67155 128.28223 34675 ft 553 kts 55°
2026-05-05 13:05 27.69160 128.31545 34940 ft 555 kts 55°
2026-05-05 13:05 27.71301 128.35102 35110 ft 554 kts 55°
2026-05-05 13:05 27.73433 128.38649 35137 ft 537 kts 55°
2026-05-05 13:05 27.75500 128.42092 35138 ft 528 kts 55°
2026-05-05 13:06 27.79679 128.49058 35144 ft 544 kts 55°
2026-05-05 13:06 27.83954 128.56196 35140 ft 550 kts 55°
2026-05-05 13:07 27.88238 128.63364 35138 ft 549 kts 55°
2026-05-05 13:07 27.92503 128.70511 35139 ft 547 kts 55°
2026-05-05 13:08 27.96752 128.77643 35149 ft 549 kts 56°
2026-05-05 13:08 28.01003 128.84789 35140 ft 553 kts 56°
2026-05-05 13:09 28.05298 128.92024 35134 ft 552 kts 56°
2026-05-05 13:09 28.09569 128.99228 35160 ft 550 kts 56°
2026-05-05 13:10 28.13777 129.06338 35141 ft 554 kts 56°
2026-05-05 13:10 28.18069 129.13603 35142 ft 555 kts 56°
2026-05-05 13:11 28.22323 129.20815 35146 ft 553 kts 56°
2026-05-05 13:11 28.26604 129.28082 35154 ft 556 kts 56°
2026-05-05 13:12 28.30911 129.35407 35127 ft 559 kts 56°
2026-05-05 13:12 28.35216 129.42746 35131 ft 557 kts 56°
2026-05-05 13:13 28.39505 129.50068 35126 ft 557 kts 56°
2026-05-05 13:13 28.43485 129.57569 35109 ft 559 kts 68°
2026-05-05 13:14 28.44680 129.61741 35105 ft 553 kts 80°
2026-05-05 13:14 28.45417 129.66013 35102 ft 550 kts 85°
2026-05-05 13:14 28.46084 129.71771 35101 ft 548 kts 88°
2026-05-05 13:15 28.46824 129.79786 35102 ft 548 kts 88°
2026-05-05 13:15 28.47655 129.88407 35128 ft 549 kts 88°
2026-05-05 13:16 28.48551 129.96998 35134 ft 552 kts 87°
2026-05-05 13:16 28.49479 130.05667 35130 ft 553 kts 87°
2026-05-05 13:17 28.51033 130.14248 35138 ft 559 kts 73°
2026-05-05 13:17 28.54385 130.22226 35142 ft 562 kts 59°
2026-05-05 13:18 28.58666 130.29667 35144 ft 563 kts 55°
2026-05-05 13:18 28.63186 130.36955 35143 ft 564 kts 54°
2026-05-05 13:19 28.67673 130.44201 35143 ft 564 kts 54°
2026-05-05 13:19 28.72151 130.51530 35151 ft 564 kts 55°
2026-05-05 13:20 28.76623 130.58905 35141 ft 567 kts 55°
2026-05-05 13:20 28.81107 130.66317 35143 ft 568 kts 55°
2026-05-05 13:21 28.85590 130.73737 35149 ft 568 kts 55°
2026-05-05 13:21 28.90046 130.81121 35143 ft 569 kts 55°
2026-05-05 13:22 28.93712 130.87205 35146 ft 569 kts 55°
2026-05-05 13:22 28.98193 130.94655 35144 ft 569 kts 55°
2026-05-05 13:23 29.02670 131.02114 35150 ft 570 kts 54°
2026-05-05 13:23 29.07146 131.09582 35148 ft 570 kts 55°
2026-05-05 13:24 29.11591 131.17012 35139 ft 570 kts 55°
2026-05-05 13:24 29.16061 131.24497 35144 ft 570 kts 55°
2026-05-05 13:25 29.20521 131.31980 35143 ft 569 kts 55°
2026-05-05 13:25 29.24978 131.39470 35142 ft 568 kts 55°
2026-05-05 13:26 29.29419 131.46950 35141 ft 568 kts 55°
2026-05-05 13:26 29.33836 131.54398 35144 ft 569 kts 55°
2026-05-05 13:27 29.38275 131.61899 35142 ft 567 kts 55°
2026-05-05 13:27 29.42696 131.69384 35132 ft 568 kts 54°
2026-05-05 13:28 29.47129 131.76900 35134 ft 569 kts 54°
2026-05-05 13:28 29.51555 131.84421 35146 ft 567 kts 54°
2026-05-05 13:29 29.55914 131.91841 35148 ft 568 kts 54°
2026-05-05 13:29 29.60147 131.99058 35126 ft 568 kts 54°
2026-05-05 13:30 29.64557 132.06572 35150 ft 565 kts 54°
2026-05-05 13:30 29.69414 132.13682 35163 ft 566 kts 49°
2026-05-05 13:31 29.74399 132.20694 35153 ft 566 kts 48°
2026-05-05 13:31 29.79393 132.27681 35158 ft 565 kts 48°
2026-05-05 13:32 29.84349 132.34637 35164 ft 566 kts 48°
2026-05-05 13:32 29.89333 132.41659 35166 ft 566 kts 48°
2026-05-05 13:33 29.94306 132.48684 35167 ft 565 kts 48°
2026-05-05 13:33 29.99275 132.55714 35169 ft 566 kts 48°
2026-05-05 13:34 30.04242 132.62752 35178 ft 565 kts 48°
2026-05-05 13:34 30.09159 132.69734 35174 ft 565 kts 48°
2026-05-05 13:35 30.14122 132.76791 35180 ft 566 kts 48°
2026-05-05 13:35 30.19078 132.83851 35198 ft 566 kts 48°
2026-05-05 13:36 30.24053 132.90948 35182 ft 570 kts 48°
2026-05-05 13:36 30.29043 132.98081 35185 ft 571 kts 48°
2026-05-05 13:37 30.34028 133.05223 35188 ft 570 kts 48°
2026-05-05 13:37 30.38973 133.12319 35186 ft 570 kts 48°
2026-05-05 13:38 30.43948 133.19469 35191 ft 570 kts 48°
2026-05-05 13:38 30.48912 133.26619 35185 ft 567 kts 49°
2026-05-05 13:39 30.53834 133.33721 35193 ft 563 kts 49°
2026-05-05 13:39 30.58735 133.40802 35209 ft 563 kts 48°
2026-05-05 13:40 30.63610 133.47859 35191 ft 564 kts 49°
2026-05-05 13:40 30.68498 133.54948 35198 ft 561 kts 49°
2026-05-05 13:41 30.73381 133.62042 35204 ft 563 kts 49°
2026-05-05 13:41 30.78282 133.69174 35197 ft 564 kts 49°
2026-05-05 13:42 30.83159 133.76291 35200 ft 562 kts 49°
2026-05-05 13:42 30.88051 133.83433 35187 ft 567 kts 48°
2026-05-05 13:43 30.92937 133.90575 35203 ft 567 kts 49°
2026-05-05 13:43 30.97734 133.97602 35212 ft 567 kts 48°
2026-05-05 13:44 31.02651 134.04818 35201 ft 568 kts 49°
2026-05-05 13:44 31.07536 134.12006 35207 ft 563 kts 49°
2026-05-05 13:45 31.12407 134.19182 35209 ft 567 kts 49°
2026-05-05 13:45 31.17277 134.26368 35205 ft 568 kts 49°
2026-05-05 13:46 31.22161 134.33592 35225 ft 566 kts 49°
2026-05-05 13:46 31.27048 134.40832 35217 ft 568 kts 49°
2026-05-05 13:47 31.31931 134.48081 35215 ft 566 kts 49°
2026-05-05 13:47 31.36789 134.55306 35212 ft 566 kts 49°
2026-05-05 13:48 31.41626 134.62511 35200 ft 566 kts 49°
2026-05-05 13:48 31.46475 134.69750 35235 ft 565 kts 49°
2026-05-05 13:49 31.51332 134.77012 35213 ft 567 kts 49°
2026-05-05 13:49 31.56192 134.84293 35230 ft 567 kts 49°
2026-05-05 13:50 31.61046 134.91579 35222 ft 568 kts 49°
2026-05-05 13:50 31.65878 134.98847 35223 ft 569 kts 49°
2026-05-05 13:51 31.70687 135.06095 35223 ft 565 kts 49°
2026-05-05 13:51 31.75581 135.13147 35225 ft 562 kts 45°
2026-05-05 13:52 31.80885 135.19868 35219 ft 561 kts 43°
2026-05-05 13:52 31.83092 135.22631 35220 ft 561 kts 43°
2026-05-05 13:53 31.87806 135.28627 35225 ft 561 kts 44°
2026-05-05 13:53 31.92704 135.34989 35227 ft 561 kts 44°
2026-05-05 13:54 31.97920 135.41828 35235 ft 565 kts 45°
2026-05-05 13:54 32.03259 135.48837 35238 ft 582 kts 45°
2026-05-05 13:55 32.08726 135.56026 35236 ft 593 kts 45°
2026-05-05 13:55 32.14163 135.63364 35236 ft 595 kts 48°
2026-05-05 13:56 32.19373 135.70964 35236 ft 595 kts 49°
2026-05-05 13:56 32.24511 135.78544 35253 ft 596 kts 49°
2026-05-05 13:57 32.29744 135.86180 35237 ft 600 kts 48°
2026-05-05 13:57 32.34549 135.93153 35236 ft 600 kts 48°
2026-05-05 13:58 32.39724 136.00665 35238 ft 602 kts 48°
2026-05-05 13:58 32.44903 136.08205 35238 ft 603 kts 48°
2026-05-05 13:59 32.52670 136.19551 35237 ft 604 kts 48°
2026-05-05 14:00 32.59412 136.29427 35243 ft 605 kts 48°
2026-05-05 14:00 32.65588 136.38497 35239 ft 605 kts 49°
2026-05-05 14:01 32.70882 136.46287 35241 ft 606 kts 49°
2026-05-05 14:01 32.76103 136.53988 35245 ft 606 kts 49°
2026-05-05 14:02 32.81376 136.61783 35247 ft 607 kts 49°
2026-05-05 14:02 32.86666 136.69618 35246 ft 608 kts 49°
2026-05-05 14:03 32.91954 136.77465 35243 ft 608 kts 49°
2026-05-05 14:03 32.97217 136.85294 35248 ft 610 kts 49°
2026-05-05 14:04 33.02498 136.93166 35246 ft 610 kts 49°
2026-05-05 14:04 33.07789 137.01070 35252 ft 610 kts 49°
2026-05-05 14:05 33.13078 137.08988 35246 ft 610 kts 49°
2026-05-05 14:05 33.18363 137.16917 35249 ft 610 kts 49°
2026-05-05 14:06 33.23638 137.24846 35249 ft 610 kts 49°
2026-05-05 14:06 33.28875 137.32737 35249 ft 610 kts 49°
2026-05-05 14:07 33.34140 137.40687 35253 ft 609 kts 49°
2026-05-05 14:07 33.39396 137.48640 35249 ft 609 kts 49°
2026-05-05 14:08 33.44252 137.56003 35251 ft 609 kts 49°
2026-05-05 14:08 33.49493 137.63967 35255 ft 609 kts 49°
2026-05-05 14:09 33.54723 137.71931 35245 ft 610 kts 49°
2026-05-05 14:09 33.59929 137.79877 35255 ft 610 kts 49°
2026-05-05 14:10 33.65169 137.87892 35251 ft 610 kts 49°
2026-05-05 14:10 33.70382 137.95882 35256 ft 611 kts 49°
2026-05-05 14:11 33.75494 138.03737 35274 ft 610 kts 49°
2026-05-05 14:11 33.80513 138.11466 35256 ft 605 kts 49°
2026-05-05 14:12 33.82924 138.15189 35144 ft 592 kts 49°
2026-05-05 14:12 33.85443 138.19083 34941 ft 591 kts 49°
2026-05-05 14:12 33.87945 138.22945 34750 ft 594 kts 49°
2026-05-05 14:12 33.90445 138.26896 34504 ft 596 kts 53°
2026-05-05 14:13 33.92559 138.31178 34197 ft 596 kts 59°
2026-05-05 14:13 33.94592 138.35521 33341 ft 595 kts 60°
2026-05-05 14:13 33.96576 138.39911 32360 ft 598 kts 60°
2026-05-05 14:13 33.98536 138.44338 31446 ft 599 kts 60°
2026-05-05 14:14 34.00484 138.48777 30587 ft 599 kts 60°
2026-05-05 14:14 34.02427 138.53208 29686 ft 596 kts 60°
2026-05-05 14:14 34.04344 138.57573 28494 ft 583 kts 60°
2026-05-05 14:14 34.06198 138.61785 27340 ft 569 kts 60°
2026-05-05 14:15 34.08040 138.65962 26692 ft 544 kts 60°
2026-05-05 14:15 34.09768 138.69880 26140 ft 524 kts 61°
2026-05-05 14:15 34.10954 138.72570 25743 ft 521 kts 61°
2026-05-05 14:15 34.12626 138.76359 25199 ft 516 kts 61°
2026-05-05 14:16 34.14304 138.80167 24634 ft 512 kts 61°
2026-05-05 14:16 34.15961 138.83932 24163 ft 504 kts 62°
2026-05-05 14:16 34.17596 138.87654 23569 ft 499 kts 62°
2026-05-05 14:16 34.19211 138.91334 22997 ft 492 kts 62°
2026-05-05 14:17 34.20764 138.94881 22835 ft 476 kts 62°
2026-05-05 14:17 34.22285 138.98357 22698 ft 460 kts 62°
2026-05-05 14:17 34.23756 139.01723 22548 ft 446 kts 62°
2026-05-05 14:17 34.25165 139.04949 22356 ft 433 kts 62°
2026-05-05 14:18 34.26554 139.08133 22074 ft 423 kts 62°
2026-05-05 14:18 34.27888 139.11221 21708 ft 417 kts 63°
2026-05-05 14:18 34.29087 139.14377 21330 ft 411 kts 66°
2026-05-05 14:18 34.30218 139.17523 20938 ft 405 kts 67°
2026-05-05 14:19 34.31306 139.20638 20547 ft 399 kts 68°
2026-05-05 14:19 34.32365 139.23720 20177 ft 394 kts 68°
2026-05-05 14:19 34.33401 139.26751 19830 ft 388 kts 68°
2026-05-05 14:19 34.34423 139.29743 19486 ft 382 kts 68°
2026-05-05 14:20 34.35430 139.32684 19189 ft 376 kts 68°
2026-05-05 14:20 34.36415 139.35557 18888 ft 372 kts 68°
2026-05-05 14:20 34.37398 139.38419 18589 ft 369 kts 69°
2026-05-05 14:20 34.38377 139.41270 18262 ft 365 kts 69°
2026-05-05 14:21 34.39349 139.44103 17950 ft 363 kts 69°
2026-05-05 14:21 34.40312 139.46910 17673 ft 360 kts 69°
2026-05-05 14:21 34.41268 139.49702 17385 ft 358 kts 69°
2026-05-05 14:21 34.42217 139.52475 17095 ft 356 kts 69°
2026-05-05 14:22 34.43160 139.55231 16815 ft 353 kts 69°
2026-05-05 14:22 34.43780 139.57047 16641 ft 351 kts 69°
2026-05-05 14:22 34.45011 139.60655 16265 ft 348 kts 70°
2026-05-05 14:22 34.45823 139.63034 16015 ft 346 kts 70°
2026-05-05 14:23 34.46667 139.65512 15758 ft 344 kts 70°
2026-05-05 14:23 34.47575 139.68179 15467 ft 342 kts 70°
2026-05-05 14:23 34.48707 139.70713 15206 ft 344 kts 56°
2026-05-05 14:23 34.49761 139.72143 15009 ft 345 kts 44°
2026-05-05 14:24 34.52363 139.74378 14427 ft 344 kts 34°
2026-05-05 14:24 34.53709 139.75384 14203 ft 342 kts 33°
2026-05-05 14:24 34.55732 139.76879 13899 ft 340 kts 33°
2026-05-05 14:24 34.57748 139.78364 13621 ft 338 kts 33°
2026-05-05 14:25 34.60363 139.80287 13294 ft 326 kts 33°
2026-05-05 14:25 34.62282 139.81700 12963 ft 320 kts 33°
2026-05-05 14:25 34.64168 139.83089 12648 ft 314 kts 33°
2026-05-05 14:25 34.65390 139.83989 12497 ft 305 kts 33°
2026-05-05 14:26 34.67188 139.85226 12274 ft 291 kts 26°
2026-05-05 14:26 34.69109 139.85928 12080 ft 287 kts
2026-05-05 14:26 34.71082 139.86251 11881 ft 285 kts
2026-05-05 14:26 34.73051 139.86519 11669 ft 285 kts
2026-05-05 14:27 34.75017 139.86786 11492 ft 283 kts
2026-05-05 14:27 34.76971 139.87056 11299 ft 282 kts
2026-05-05 14:27 34.78921 139.87328 11114 ft 282 kts
2026-05-05 14:27 34.80869 139.87602 10894 ft 281 kts
2026-05-05 14:28 34.82800 139.87874 10658 ft 280 kts
2026-05-05 14:28 34.84334 139.88091 10480 ft 280 kts
2026-05-05 14:28 34.86235 139.88360 10209 ft 279 kts
2026-05-05 14:28 34.88153 139.88632 9891 ft 276 kts
2026-05-05 14:29 34.89836 139.88870 9611 ft 273 kts
2026-05-05 14:29 34.91398 139.89092 9435 ft 267 kts
2026-05-05 14:29 34.93219 139.89349 9244 ft 259 kts
2026-05-05 14:29 34.94986 139.89368 9063 ft 250 kts 350°
2026-05-05 14:30 34.96660 139.88947 8875 ft 242 kts 343°
2026-05-05 14:30 34.98263 139.88437 8698 ft 235 kts 343°
2026-05-05 14:30 34.99822 139.87936 8508 ft 228 kts 343°
2026-05-05 14:30 35.01339 139.87451 8344 ft 226 kts 343°
2026-05-05 14:31 35.02863 139.86965 8165 ft 225 kts 343°
2026-05-05 14:31 35.04378 139.86484 8003 ft 225 kts 343°
2026-05-05 14:31 35.05887 139.86006 7825 ft 224 kts 344°
2026-05-05 14:31 35.07389 139.85530 7657 ft 223 kts 344°
2026-05-05 14:32 35.08867 139.85062 7484 ft 222 kts 344°
2026-05-05 14:32 35.10357 139.84590 7323 ft 221 kts 344°
2026-05-05 14:32 35.11727 139.84157 7164 ft 221 kts 344°
2026-05-05 14:32 35.13215 139.83686 7002 ft 220 kts 344°
2026-05-05 14:33 35.14693 139.83218 6830 ft 219 kts 344°
2026-05-05 14:33 35.16170 139.82749 6662 ft 219 kts 344°
2026-05-05 14:33 35.17509 139.82325 6493 ft 218 kts 344°
2026-05-05 14:33 35.18960 139.81866 6324 ft 217 kts 344°
2026-05-05 14:34 35.20396 139.81411 6140 ft 217 kts 344°
2026-05-05 14:34 35.21852 139.80958 5981 ft 213 kts 344°
2026-05-05 14:34 35.23261 139.80512 5766 ft 208 kts 343°
2026-05-05 14:34 35.24671 139.80060 5388 ft 211 kts 343°
2026-05-05 14:35 35.25951 139.79650 5029 ft 214 kts 343°
2026-05-05 14:35 35.27389 139.79191 4679 ft 215 kts 343°
2026-05-05 14:35 35.28785 139.78748 4519 ft 206 kts 343°
2026-05-05 14:35 35.30183 139.78360 4233 ft 208 kts 349°
2026-05-05 14:36 35.31562 139.78401 3977 ft 211 kts 11°
2026-05-05 14:36 35.32907 139.79120 3906 ft 212 kts 35°
2026-05-05 14:36 35.34080 139.80205 3861 ft 211 kts 41°
2026-05-05 14:36 35.35214 139.81345 3823 ft 210 kts 41°
2026-05-05 14:37 35.36345 139.82485 3756 ft 211 kts 41°
2026-05-05 14:37 35.37480 139.83618 3691 ft 211 kts 41°
2026-05-05 14:37 35.38624 139.84755 3638 ft 212 kts 41°
2026-05-05 14:37 35.39656 139.85779 3580 ft 212 kts 41°
2026-05-05 14:38 35.40826 139.86938 3508 ft 212 kts 41°
2026-05-05 14:38 35.41963 139.88064 3401 ft 211 kts 41°
2026-05-05 14:38 35.43024 139.89114 3275 ft 210 kts 41°
2026-05-05 14:38 35.44061 139.90211 3176 ft 208 kts 46°
2026-05-05 14:39 35.45094 139.91455 3142 ft 209 kts 48°
2026-05-05 14:39 35.46117 139.92712 3117 ft 209 kts 48°
2026-05-05 14:39 35.47147 139.93975 3074 ft 209 kts 48°
2026-05-05 14:39 35.48169 139.95227 3049 ft 209 kts 48°
2026-05-05 14:40 35.48876 139.96091 3030 ft 209 kts 48°
2026-05-05 14:40 35.49886 139.97326 2999 ft 208 kts 48°
2026-05-05 14:40 35.50906 139.98573 2947 ft 206 kts 48°
2026-05-05 14:40 35.51921 139.99813 2900 ft 206 kts 49°
2026-05-05 14:41 35.52999 140.00960 2805 ft 205 kts 36°
2026-05-05 14:41 35.54310 140.01444 2735 ft 192 kts 359°
2026-05-05 14:41 35.55550 140.01010 2651 ft 184 kts 324°
2026-05-05 14:41 35.56420 139.99922 2590 ft 176 kts 297°
2026-05-05 14:42 35.56974 139.98614 2500 ft 169 kts 281°
2026-05-05 14:42 35.57123 139.97229 2318 ft 161 kts 263°
2026-05-05 14:42 35.57114 139.95868 2080 ft 156 kts 261°
2026-05-05 14:42 35.57092 139.94580 1868 ft 151 kts 261°
2026-05-05 14:43 35.57073 139.93297 1686 ft 150 kts 262°
2026-05-05 14:43 35.57056 139.92015 1516 ft 151 kts 262°
2026-05-05 14:43 35.57041 139.90719 1362 ft 153 kts 263°
2026-05-05 14:43 35.57020 139.89416 1272 ft 152 kts 262°
2026-05-05 14:44 35.56958 139.88107 1092 ft 153 kts 258°
2026-05-05 14:44 35.56828 139.86818 906 ft 150 kts 253°
2026-05-05 14:44 35.56520 139.85607 767 ft 147 kts 242°
2026-05-05 14:44 35.56025 139.84519 651 ft 147 kts 229°
2026-05-05 14:45 35.55329 139.83598 459 ft 149 kts 220°
2026-05-05 14:45 35.54557 139.82769 248 ft 147 kts 220°
2026-05-05 14:45 35.53807 139.81923 63 ft 145 kts 220°
2026-05-05 14:45 35.53240 139.81305 48 ft 133 kts 223°
2026-05-05 14:46 35.52780 139.80769 49 ft 48 kts 222°
2026-05-05 14:46 35.52639 139.80611 50 ft 21 kts 222°
2026-05-05 14:46 35.52563 139.80524 53 ft 9 kts 229°
2026-05-05 14:46 35.52534 139.80461 51 ft 10 kts 248°
2026-05-05 14:47 35.52536 139.80362 52 ft 11 kts 298°
2026-05-05 14:47 35.52598 139.80272 49 ft 16 kts 311°
2026-05-05 14:47 35.52671 139.80215 51 ft 11 kts 12°
2026-05-05 14:47 35.52745 139.80288 49 ft 17 kts 44°
2026-05-05 14:48 35.52850 139.80412 48 ft 25 kts 44°
2026-05-05 14:48 35.52969 139.80527 48 ft 20 kts 12°
2026-05-05 14:48 35.53099 139.80457 51 ft 24 kts 330°
2026-05-05 14:48 35.53270 139.80335 44 ft 32 kts 330°
2026-05-05 14:49 35.53441 139.80214 37 ft 29 kts 330°
2026-05-05 14:49 35.53588 139.80110 32 ft 21 kts 330°
2026-05-05 14:49 35.53728 139.80010 26 ft 24 kts 330°
2026-05-05 14:49 35.53872 139.79908 29 ft 19 kts 330°
2026-05-05 14:50 35.53992 139.79822 27 ft 21 kts 329°
2026-05-05 14:50 35.54127 139.79726 27 ft 24 kts 329°
2026-05-05 14:50 35.54262 139.79631 27 ft 23 kts 330°
2026-05-05 14:50 35.54409 139.79527 29 ft 23 kts 330°
2026-05-05 14:51 35.54538 139.79436 31 ft 13 kts 330°
2026-05-05 14:51 35.54622 139.79376 33 ft 15 kts 330°
2026-05-05 14:51 35.54650 139.79323 34 ft 4 kts 266°
2026-05-05 14:51 35.54639 139.79290 35 ft 6 kts 247°
2026-05-05 14:52 35.54614 139.79233 38 ft 10 kts 240°
2026-05-05 14:52 35.54571 139.79138 42 ft 15 kts 240°
2026-05-05 14:52 35.54509 139.79011 46 ft 20 kts 239°
2026-05-05 14:52 35.54431 139.78843 41 ft 27 kts 239°
2026-05-05 14:53 35.54351 139.78686 37 ft 25 kts 239°
2026-05-05 14:53 35.54293 139.78561 33 ft 14 kts 242°
2026-05-05 14:53 35.54346 139.78463 30 ft 18 kts 329°
2026-05-05 14:53 35.54470 139.78375 30 ft 22 kts 330°
2026-05-05 14:54 35.54603 139.78279 30 ft 21 kts 328°
2026-05-05 14:54 35.54704 139.78206 30 ft 17 kts 331°
2026-05-05 14:54 35.54816 139.78130 29 ft 20 kts 330°
2026-05-05 14:54 35.54898 139.78110 28 ft 7 kts 38°
2026-05-05 14:55 35.54931 139.78167 29 ft 9 kts 59°
2026-05-05 14:55 35.54956 139.78219 29 ft 4 kts 60°
2026-05-05 14:55 35.54960 139.78227 29 ft 0 kts 59°